Flag for U.S.A. Weather past 2 weeks in Bismarck, North Dakota, U.S.A.

Now
67 °F

Mostly cloudy.


Feels Like: 67 °F
Forecast: 56 / 71 °F
Wind: 8 mph from Northwest

Location: Bismarck Municipal Airport

Current Time: Jul 6, 2015 at 11:49:21 AM

Latest Report: Jul 6, 2015 at 10:52 AM


Visibility: 3 mi

Pressure: 30.14 "Hg (28.39 "Hg at 513m altitude)

Humidity: 63%

Dew point: 54 °F

Location of BismarckLocation

Historic Weather in Bismarck — Graph

°F

Bismarck temperature yesterday

Maximum temperature yesterday: 79 °F (at 2:52 PM)
Minimum temperature yesterday: 67 °F (at 5:52 AM)
Average temperature yesterday: 71 °F

Past Weeks' High & Low Weather Summary

 TemperatureHumidityPressure
High92 °F (Jun 29, 3:52 PM)100% (Jun 22, 3:52 AM)30.17 "Hg (Jun 22, 3:52 AM)
Low50 °F (Jun 23, 5:52 AM)28% (Jun 29, 3:52 PM)29.67 "Hg (Jun 21, 7:52 PM)
Average70 °F72%29.95 "Hg
* Reported Jun 21 9:52 AM — Jul 6 9:52 AM, Bismarck, Weather by CustomWeather, © 2015

Note: Actual official high and low records may vary slightly from our data, if they occured in-between our weather recording intervals... More about our weather records

Advertising

Bismarck weather history for previous 24 hours

 ConditionsComfort  
Time TempWeatherWind HumidityBarometerVisibility
9:52 AM
Mon, Jul 6
65 °FOvercast.6 mph73%30.13 "Hg3 mi
8:52 AM62 °FBroken clouds.7 mph78%30.12 "Hg3 mi
7:52 AM60 °FSunny.6 mph80%30.11 "Hg5 mi
6:52 AM60 °FClear.7 mph80%30.09 "Hg6 mi
5:52 AM61 °FPassing clouds.8 mph75%30.07 "Hg8 mi
4:52 AM61 °FClear.7 mph78%30.05 "Hg7 mi
3:52 AM62 °FClear.8 mph75%30.03 "Hg6 mi
2:52 AM63 °FClear.12 mph73%30.00 "Hg5 mi
1:52 AM64 °FHaze.9 mph75%29.98 "Hg2 mi
12:52 AM66 °FPassing clouds.10 mph73%29.98 "Hg2 mi
11:52 PM
Sun, Jul 5
68 °FPassing clouds.10 mph70%29.97 "Hg2 mi
10:52 PM69 °FPassing clouds.5 mph73%29.96 "Hg2 mi
9:52 PM70 °FOvercast.9 mph73%29.93 "Hg3 mi
9:03 PM71 °FOvercast.7 mph73%29.97 "Hg2 mi
7:52 PM72 °FBroken clouds.6 mph66%29.93 "Hg4 mi
6:52 PM72 °FPartly sunny.6 mph66%29.91 "Hg6 mi
5:52 PM73 °FPartly sunny.9 mph64%29.90 "Hg5 mi
4:52 PM75 °FPartly sunny.16 mph55%29.88 "Hg4 mi
3:52 PM76 °FHaze.14 mph60%29.85 "Hg6 mi
2:52 PM79 °FBroken clouds.16 mph58%29.82 "Hg10 mi
1:52 PM78 °FScattered clouds.14 mph62%29.82 "Hg10 mi
12:52 PM73 °FSunny.6 mph74%29.80 "Hg10 mi
11:52 AM68 °FLight rain. Partly sunny.10 mph87%29.75 "Hg9 mi
Weather by CustomWeather, © 2015

See weather overviewHow to use our weather pages